Overview Statistics Trail Chart Weather Telemetry Raw packets
 

This is the latest recevied weather packets stored in our database for station/object KV4OP. If no packets are shown the sender has not sent any weather packets the latest 10 day(s).

<< 104 105 106 107 108 109 110 >>
Time Temp. Humidity Pressure Rain* Wind** Luminosity Snow
1787872822 23.89° C 78% 1017.3 hPa 0.76 mm - - -
1787872515 23.89° C 78% 1017.3 hPa 1.02 mm - - -
1787871961 23.89° C 78% 1017.4 hPa 1.02 mm - - -
1787871913 23.89° C 78% 1017.4 hPa 1.02 mm - - -
1787871020 23.89° C 78% 1017.5 hPa 1.52 mm - - -
1787870421 23.89° C 78% 1017.5 hPa 1.52 mm - - -
1787870106 23.89° C 77% 1017.4 hPa 1.27 mm - - -
1787869807 23.89° C 77% 1017.4 hPa 1.52 mm - - -
1787869517 23.89° C 77% 1017.4 hPa 1.27 mm - - -
1787869224 23.89° C 77% 1017.5 hPa 1.52 mm - - -
1787868661 23.89° C 77% 1018 hPa 1.52 mm - - -
1787868319 23.89° C 77% 1018 hPa 1.52 mm - - -
1787868026 23.89° C 77% 1018 hPa 1.27 mm - - -
1787867717 23.89° C 77% 1017.9 hPa 1.02 mm - - -
1787867459 23.89° C 77% 1017.8 hPa 1.27 mm - - -
1787867412 23.89° C 77% 1017.8 hPa 1.27 mm - - -
1787866509 23.89° C 77% 1017.4 hPa 2.79 mm - - -
1787866259 23.89° C 77% 1017.5 hPa 4.32 mm - - -
1787866211 23.89° C 77% 1017.5 hPa 4.32 mm - - -
1787865910 23.89° C 78% 1017.5 hPa 5.59 mm - - -
1787865614 23.89° C 77% 1017.5 hPa 8.89 mm - - -
1787865359 23.89° C 77% 1017.4 hPa 9.65 mm - - -
1787865311 23.89° C 78% 1017.4 hPa 9.65 mm - - -
1787865007 23.89° C 78% 1017.4 hPa 10.41 mm - - -
1787864434 23.89° C 77% 1017.2 hPa 15.24 mm - - -

* Rain latest hour (hover to see other rain measurements)
** Current wind speed in m/s (hover to see current wind gust speed)